Year,Month,Day,Hour,Minute,Value (Times are PST for windgust in km/hr)
2016,04,14,00,00,12.90
2016,04,14,00,01,11.30
2016,04,14,00,02,20.90
2016,04,14,00,03,16.10
2016,04,14,00,04,12.90
2016,04,14,00,05,8.10
2016,04,14,00,06,6.40
2016,04,14,00,07,6.40
2016,04,14,00,08,4.80
2016,04,14,00,09,8.10
2016,04,14,00,10,11.30
2016,04,14,00,11,19.30
2016,04,14,00,12,14.50
2016,04,14,00,13,12.90
2016,04,14,00,14,8.10
2016,04,14,00,15,11.30
2016,04,14,00,16,8.10
2016,04,14,00,17,6.40
2016,04,14,00,18,14.50
2016,04,14,00,19,4.80
2016,04,14,00,20,8.10
2016,04,14,00,21,6.40
2016,04,14,00,22,4.80
2016,04,14,00,23,1.60
2016,04,14,00,27,11.30
2016,04,14,00,28,14.50
2016,04,14,00,29,14.50
2016,04,14,00,30,8.10
2016,04,14,00,31,6.40
2016,04,14,00,32,8.10
2016,04,14,00,33,11.30
2016,04,14,00,34,11.30
2016,04,14,00,35,4.80
2016,04,14,00,36,1.60
2016,04,14,00,41,1.60
2016,04,14,00,47,1.60
2016,04,14,00,52,1.60
2016,04,14,00,53,4.80
2016,04,14,00,55,4.80
2016,04,14,00,56,6.40
2016,04,14,00,57,6.40
2016,04,14,00,58,4.80
2016,04,14,00,59,1.60
2016,04,14,01,00,1.60
2016,04,14,01,01,3.20
2016,04,14,01,02,3.20
2016,04,14,01,03,3.20
2016,04,14,01,04,1.60
2016,04,14,01,05,3.20
2016,04,14,01,06,3.20
2016,04,14,01,07,1.60
2016,04,14,01,08,1.60
2016,04,14,01,09,1.60
2016,04,14,01,10,1.60
2016,04,14,01,11,3.20
2016,04,14,01,12,3.20
2016,04,14,01,13,1.60
2016,04,14,01,14,1.60
2016,04,14,01,15,3.20
2016,04,14,01,16,6.40
2016,04,14,01,17,8.10
2016,04,14,01,18,3.20
2016,04,14,01,19,1.60
2016,04,14,01,20,1.60
2016,04,14,01,21,1.60
2016,04,14,01,22,1.60
2016,04,14,01,23,1.60
2016,04,14,01,24,1.60
2016,04,14,01,25,3.20
2016,04,14,01,26,1.60
2016,04,14,01,27,1.60
2016,04,14,01,28,1.60
2016,04,14,01,29,1.60
2016,04,14,01,30,3.20
2016,04,14,01,31,3.20
2016,04,14,01,32,3.20
2016,04,14,01,33,3.20
2016,04,14,01,34,3.20
2016,04,14,01,35,4.80
2016,04,14,01,36,4.80
2016,04,14,01,37,3.20
2016,04,14,01,38,3.20
2016,04,14,01,39,3.20
2016,04,14,01,40,3.20
2016,04,14,01,41,4.80
2016,04,14,01,42,4.80
2016,04,14,01,43,4.80
2016,04,14,01,44,12.90
2016,04,14,01,45,8.10
2016,04,14,01,46,8.10
2016,04,14,01,47,6.40
2016,04,14,01,48,8.10
2016,04,14,01,49,6.40
2016,04,14,01,50,11.30
2016,04,14,01,51,9.60
2016,04,14,01,52,8.10
2016,04,14,01,53,4.80
2016,04,14,01,54,3.20
2016,04,14,01,55,4.80
2016,04,14,01,56,3.20
2016,04,14,01,57,6.40
2016,04,14,01,58,9.60
2016,04,14,01,59,9.60
2016,04,14,02,00,6.40
2016,04,14,02,01,11.30
2016,04,14,02,02,6.40
2016,04,14,02,03,11.30
2016,04,14,02,04,9.60
2016,04,14,02,05,11.30
2016,04,14,02,06,9.60
2016,04,14,02,07,6.40
2016,04,14,02,08,4.80
2016,04,14,02,09,6.40
2016,04,14,02,10,6.40
2016,04,14,02,11,8.10
2016,04,14,02,12,4.80
2016,04,14,02,13,4.80
2016,04,14,02,14,3.20
2016,04,14,02,15,3.20
2016,04,14,02,16,3.20
2016,04,14,02,17,4.80
2016,04,14,02,18,4.80
2016,04,14,02,19,4.80
2016,04,14,02,20,6.40
2016,04,14,02,21,1.60
2016,04,14,02,22,3.20
2016,04,14,02,23,4.80
2016,04,14,02,24,3.20
2016,04,14,02,25,3.20
2016,04,14,02,26,3.20
2016,04,14,02,27,1.60
2016,04,14,02,28,1.60
2016,04,14,02,29,3.20
2016,04,14,02,30,3.20
2016,04,14,02,31,1.60
2016,04,14,02,32,1.60
2016,04,14,02,33,3.20
2016,04,14,02,34,3.20
2016,04,14,02,35,1.60
2016,04,14,02,36,3.20
2016,04,14,02,37,3.20
2016,04,14,02,38,3.20
2016,04,14,02,39,1.60
2016,04,14,02,40,1.60
2016,04,14,02,41,1.60
2016,04,14,02,42,3.20
2016,04,14,02,48,1.60
2016,04,14,02,49,3.20
2016,04,14,02,50,3.20
2016,04,14,02,55,3.20
2016,04,14,02,56,3.20
2016,04,14,02,57,1.60
2016,04,14,02,58,4.80
2016,04,14,02,59,3.20
2016,04,14,03,01,1.60
2016,04,14,03,03,1.60
2016,04,14,03,08,3.20
2016,04,14,03,09,3.20
2016,04,14,03,10,3.20
2016,04,14,03,19,1.60
2016,04,14,03,20,3.20
2016,04,14,03,21,1.60
2016,04,14,03,22,1.60
2016,04,14,03,23,3.20
2016,04,14,03,24,3.20
2016,04,14,03,25,3.20
2016,04,14,03,26,1.60
2016,04,14,03,29,3.20
2016,04,14,03,30,1.60
2016,04,14,03,33,3.20
2016,04,14,03,34,3.20
2016,04,14,03,35,4.80
2016,04,14,03,36,4.80
2016,04,14,03,37,1.60
2016,04,14,03,38,1.60
2016,04,14,03,39,4.80
2016,04,14,03,40,3.20
2016,04,14,03,41,3.20
2016,04,14,03,42,1.60
2016,04,14,03,43,1.60
2016,04,14,03,52,1.60
2016,04,14,03,56,3.20
2016,04,14,03,57,3.20
2016,04,14,03,58,1.60
2016,04,14,04,16,1.60
2016,04,14,04,17,3.20
2016,04,14,04,18,1.60
2016,04,14,04,20,1.60
2016,04,14,04,25,1.60
2016,04,14,05,04,4.80
2016,04,14,05,05,4.80
2016,04,14,05,06,3.20
2016,04,14,05,07,3.20
2016,04,14,05,22,1.60
2016,04,14,05,23,1.60
2016,04,14,05,24,1.60
2016,04,14,05,25,1.60
2016,04,14,05,26,1.60
2016,04,14,05,40,3.20
2016,04,14,05,41,3.20
2016,04,14,05,42,3.20
2016,04,14,05,43,4.80
2016,04,14,05,44,3.20
2016,04,14,05,45,3.20
2016,04,14,05,46,3.20
2016,04,14,06,15,4.80
2016,04,14,06,16,4.80
2016,04,14,06,17,3.20
2016,04,14,06,18,3.20
2016,04,14,06,19,3.20
2016,04,14,06,20,1.60
2016,04,14,06,21,3.20
2016,04,14,06,22,4.80
2016,04,14,06,23,4.80
2016,04,14,06,24,3.20
2016,04,14,06,25,1.60
2016,04,14,06,26,4.80
2016,04,14,06,27,4.80
2016,04,14,06,28,3.20
2016,04,14,06,29,1.60
2016,04,14,06,30,3.20
2016,04,14,06,31,3.20
2016,04,14,06,33,1.60
2016,04,14,06,35,1.60
2016,04,14,06,36,1.60
2016,04,14,06,41,1.60
2016,04,14,06,42,1.60
2016,04,14,06,43,3.20
2016,04,14,06,44,1.60
2016,04,14,06,45,1.60
2016,04,14,06,46,1.60
2016,04,14,06,47,1.60
2016,04,14,06,48,1.60
2016,04,14,06,49,1.60
2016,04,14,06,54,1.60
2016,04,14,06,55,1.60
2016,04,14,06,57,1.60
2016,04,14,06,58,3.20
2016,04,14,06,59,4.80
2016,04,14,07,00,3.20
2016,04,14,07,01,3.20
2016,04,14,07,02,1.60
2016,04,14,07,03,4.80
2016,04,14,07,04,6.40
2016,04,14,07,05,6.40
2016,04,14,07,06,4.80
2016,04,14,07,07,4.80
2016,04,14,07,08,3.20
2016,04,14,07,09,1.60
2016,04,14,07,10,1.60
2016,04,14,07,11,1.60
2016,04,14,07,12,1.60
2016,04,14,07,13,3.20
2016,04,14,07,14,1.60
2016,04,14,07,15,1.60
2016,04,14,07,42,3.20
2016,04,14,07,43,4.80
2016,04,14,07,44,6.40
2016,04,14,07,45,6.40
2016,04,14,07,46,6.40
2016,04,14,07,47,4.80
2016,04,14,07,48,3.20
2016,04,14,07,49,3.20
2016,04,14,07,52,3.20
2016,04,14,07,53,3.20
2016,04,14,07,54,4.80
2016,04,14,07,55,4.80
2016,04,14,07,56,4.80
2016,04,14,07,57,3.20
2016,04,14,07,59,1.60
2016,04,14,08,00,1.60
2016,04,14,08,01,3.20
2016,04,14,08,02,3.20
2016,04,14,08,03,3.20
2016,04,14,08,04,3.20
2016,04,14,08,05,3.20
2016,04,14,08,06,1.60
2016,04,14,08,07,3.20
2016,04,14,08,08,1.60
2016,04,14,08,09,1.60
2016,04,14,08,10,1.60
2016,04,14,08,11,1.60
2016,04,14,08,16,4.80
2016,04,14,08,17,4.80
2016,04,14,08,18,3.20
2016,04,14,08,19,1.60
2016,04,14,08,20,1.60
2016,04,14,08,21,3.20
2016,04,14,08,22,3.20
2016,04,14,08,23,3.20
2016,04,14,08,24,1.60
2016,04,14,08,25,1.60
2016,04,14,08,30,1.60
2016,04,14,08,31,1.60
2016,04,14,08,32,1.60
2016,04,14,08,33,3.20
2016,04,14,08,34,1.60
2016,04,14,08,35,3.20
2016,04,14,08,36,3.20
2016,04,14,08,37,1.60
2016,04,14,08,38,3.20
2016,04,14,08,39,1.60
2016,04,14,08,40,1.60
2016,04,14,08,41,3.20
2016,04,14,08,42,1.60
2016,04,14,08,43,3.20
2016,04,14,08,44,3.20
2016,04,14,08,45,1.60
2016,04,14,08,47,1.60
2016,04,14,08,48,3.20
2016,04,14,08,49,1.60
2016,04,14,08,50,3.20
2016,04,14,08,51,3.20
2016,04,14,08,52,4.80
2016,04,14,08,53,3.20
2016,04,14,08,54,3.20
2016,04,14,08,59,1.60
2016,04,14,09,00,1.60
2016,04,14,09,01,1.60
2016,04,14,09,02,1.60
2016,04,14,09,03,1.60
2016,04,14,09,04,3.20
2016,04,14,09,05,1.60
2016,04,14,09,06,1.60
2016,04,14,09,11,1.60
2016,04,14,09,30,1.60
2016,04,14,09,51,1.60
2016,04,14,10,15,1.60
2016,04,14,10,16,1.60
2016,04,14,10,17,1.60
2016,04,14,10,21,1.60
2016,04,14,10,22,1.60
2016,04,14,10,25,1.60
2016,04,14,10,28,1.60
2016,04,14,10,30,1.60
2016,04,14,10,34,1.60
2016,04,14,10,35,1.60
2016,04,14,10,38,1.60
2016,04,14,10,39,1.60
2016,04,14,10,40,3.20
2016,04,14,10,41,3.20
2016,04,14,10,42,4.80
2016,04,14,10,43,4.80
2016,04,14,10,44,3.20
2016,04,14,10,45,3.20
2016,04,14,10,46,1.60
2016,04,14,10,47,1.60
2016,04,14,10,48,1.60
2016,04,14,10,49,1.60
2016,04,14,10,50,3.20
2016,04,14,10,51,1.60
2016,04,14,10,52,1.60
2016,04,14,10,53,3.20
2016,04,14,10,54,1.60
2016,04,14,10,55,1.60
2016,04,14,10,56,3.20
2016,04,14,10,57,4.80
2016,04,14,10,58,1.60
2016,04,14,10,59,3.20
2016,04,14,11,00,1.60
2016,04,14,11,01,3.20
2016,04,14,11,02,6.40
2016,04,14,11,03,6.40
2016,04,14,11,04,3.20
2016,04,14,11,05,9.60
2016,04,14,11,06,6.40
2016,04,14,11,07,8.10
2016,04,14,11,08,3.20
2016,04,14,11,09,4.80
2016,04,14,11,10,3.20
2016,04,14,11,11,1.60
2016,04,14,11,12,3.20
2016,04,14,11,13,1.60
2016,04,14,11,14,1.60
2016,04,14,11,15,1.60
2016,04,14,11,16,1.60
2016,04,14,11,17,6.40
2016,04,14,11,18,8.10
2016,04,14,11,19,6.40
2016,04,14,11,24,1.60
2016,04,14,11,25,6.40
2016,04,14,11,26,1.60
2016,04,14,11,27,4.80
2016,04,14,11,28,9.60
2016,04,14,11,29,8.10
2016,04,14,11,30,3.20
2016,04,14,11,31,6.40
2016,04,14,11,32,4.80
2016,04,14,11,33,1.60
2016,04,14,11,35,4.80
2016,04,14,11,36,1.60
2016,04,14,11,37,3.20
2016,04,14,11,44,3.20
2016,04,14,11,45,3.20
2016,04,14,11,46,1.60
2016,04,14,11,49,8.10
2016,04,14,11,50,8.10
2016,04,14,11,51,4.80
2016,04,14,11,52,8.10
2016,04,14,11,53,8.10
2016,04,14,11,54,11.30
2016,04,14,11,55,11.30
2016,04,14,11,56,6.40
2016,04,14,11,57,8.10
2016,04,14,11,58,9.60
2016,04,14,11,59,9.60
2016,04,14,12,00,8.10
2016,04,14,12,01,4.80
2016,04,14,12,03,4.80
2016,04,14,12,04,8.10
2016,04,14,12,06,11.30
2016,04,14,12,07,8.10
2016,04,14,12,08,4.80
2016,04,14,12,09,4.80
2016,04,14,12,10,9.60
2016,04,14,12,11,9.60
2016,04,14,12,12,9.60
2016,04,14,12,13,8.10
2016,04,14,12,14,9.60
2016,04,14,12,15,8.10
2016,04,14,12,16,8.10
2016,04,14,12,17,8.10
2016,04,14,12,18,9.60
2016,04,14,12,19,9.60
2016,04,14,12,20,11.30
2016,04,14,12,21,9.60
2016,04,14,12,22,9.60
2016,04,14,12,23,6.40
2016,04,14,12,24,11.30
2016,04,14,12,25,11.30
2016,04,14,12,26,8.10
2016,04,14,12,27,3.20
2016,04,14,12,28,4.80
2016,04,14,12,29,3.20
2016,04,14,12,30,8.10
2016,04,14,12,31,6.40
2016,04,14,12,32,4.80
2016,04,14,12,33,3.20
2016,04,14,12,34,6.40
2016,04,14,12,35,3.20
2016,04,14,12,36,1.60
2016,04,14,12,37,1.60
2016,04,14,12,38,4.80
2016,04,14,12,39,9.60
2016,04,14,12,40,14.50
2016,04,14,12,41,9.60
2016,04,14,12,42,6.40
2016,04,14,12,43,8.10
2016,04,14,12,44,4.80
2016,04,14,12,45,6.40
2016,04,14,12,46,6.40
2016,04,14,12,47,4.80
2016,04,14,12,48,3.20
2016,04,14,12,49,12.90
2016,04,14,12,50,9.60
2016,04,14,12,51,6.40
2016,04,14,12,52,6.40
2016,04,14,12,53,8.10
2016,04,14,12,54,4.80
2016,04,14,12,55,3.20
2016,04,14,12,56,3.20
2016,04,14,12,57,4.80
2016,04,14,12,58,4.80
2016,04,14,12,59,11.30
2016,04,14,13,00,11.30
2016,04,14,13,01,8.10
2016,04,14,13,02,8.10
2016,04,14,13,03,6.40
2016,04,14,13,04,4.80
2016,04,14,13,05,4.80
2016,04,14,13,06,3.20
2016,04,14,13,07,1.60
2016,04,14,13,08,6.40
2016,04,14,13,09,4.80
2016,04,14,13,10,8.10
2016,04,14,13,11,12.90
2016,04,14,13,12,6.40
2016,04,14,13,13,4.80
2016,04,14,13,14,3.20
2016,04,14,13,15,4.80
2016,04,14,13,16,6.40
2016,04,14,13,17,4.80
2016,04,14,13,18,6.40
2016,04,14,13,19,3.20
2016,04,14,13,20,6.40
2016,04,14,13,21,11.30
2016,04,14,13,22,9.60
2016,04,14,13,23,1.60
2016,04,14,13,24,9.60
2016,04,14,13,25,11.30
2016,04,14,13,26,8.10
2016,04,14,13,27,8.10
2016,04,14,13,28,9.60
2016,04,14,13,29,8.10
2016,04,14,13,30,4.80
2016,04,14,13,31,3.20
2016,04,14,13,32,14.50
2016,04,14,13,33,17.70
2016,04,14,13,34,12.90
2016,04,14,13,35,6.40
2016,04,14,13,36,6.40
2016,04,14,13,37,4.80
2016,04,14,13,38,3.20
2016,04,14,13,39,1.60
2016,04,14,13,40,4.80
2016,04,14,13,41,6.40
2016,04,14,13,42,9.60
2016,04,14,13,43,14.50
2016,04,14,13,44,12.90
2016,04,14,13,45,12.90
2016,04,14,13,46,14.50
2016,04,14,13,47,8.10
2016,04,14,13,48,6.40
2016,04,14,13,49,4.80
2016,04,14,13,50,4.80
2016,04,14,13,51,3.20
2016,04,14,13,52,4.80
2016,04,14,13,53,6.40
2016,04,14,13,54,11.30
2016,04,14,13,55,17.70
2016,04,14,13,56,19.30
2016,04,14,13,57,14.50
2016,04,14,13,58,6.40
2016,04,14,13,59,8.10
2016,04,14,14,00,12.90
2016,04,14,14,01,16.10
2016,04,14,14,02,16.10
2016,04,14,14,03,14.50
2016,04,14,14,04,19.30
2016,04,14,14,05,14.50
2016,04,14,14,06,11.30
2016,04,14,14,07,11.30
2016,04,14,14,08,14.50
2016,04,14,14,09,16.10
2016,04,14,14,10,14.50
2016,04,14,14,11,12.90
2016,04,14,14,12,17.70
2016,04,14,14,13,19.30
2016,04,14,14,14,14.50
2016,04,14,14,15,4.80
2016,04,14,14,16,4.80
2016,04,14,14,17,16.10
2016,04,14,14,18,11.30
2016,04,14,14,19,11.30
2016,04,14,14,20,12.90
2016,04,14,14,21,12.90
2016,04,14,14,22,20.90
2016,04,14,14,23,17.70
2016,04,14,14,24,14.50
2016,04,14,14,25,12.90
2016,04,14,14,26,11.30
2016,04,14,14,27,11.30
2016,04,14,14,28,11.30
2016,04,14,14,29,17.70
2016,04,14,14,30,14.50
2016,04,14,14,31,12.90
2016,04,14,14,32,12.90
2016,04,14,14,33,16.10
2016,04,14,14,34,9.60
2016,04,14,14,35,9.60
2016,04,14,14,36,12.90
2016,04,14,14,37,17.70
2016,04,14,14,38,12.90
2016,04,14,14,39,8.10
2016,04,14,14,40,17.70
2016,04,14,14,41,17.70
2016,04,14,14,42,12.90
2016,04,14,14,43,14.50
2016,04,14,14,44,17.70
2016,04,14,14,45,14.50
2016,04,14,14,46,14.50
2016,04,14,14,47,9.60
2016,04,14,14,48,14.50
2016,04,14,14,49,19.30
2016,04,14,14,50,17.70
2016,04,14,14,51,20.90
2016,04,14,14,52,22.50
2016,04,14,14,53,16.10
2016,04,14,14,54,16.10
2016,04,14,14,55,17.70
2016,04,14,14,56,17.70
2016,04,14,14,57,14.50
2016,04,14,14,58,16.10
2016,04,14,14,59,20.90
2016,04,14,15,00,19.30
2016,04,14,15,01,17.70
2016,04,14,15,02,20.90
2016,04,14,15,03,20.90
2016,04,14,15,04,20.90
2016,04,14,15,05,22.50
2016,04,14,15,06,16.10
2016,04,14,15,07,17.70
2016,04,14,15,08,17.70
2016,04,14,15,09,16.10
2016,04,14,15,10,12.90
2016,04,14,15,11,14.50
2016,04,14,15,12,17.70
2016,04,14,15,13,17.70
2016,04,14,15,14,14.50
2016,04,14,15,15,19.30
2016,04,14,15,16,16.10
2016,04,14,15,17,20.90
2016,04,14,15,18,20.90
2016,04,14,15,19,20.90
2016,04,14,15,20,17.70
2016,04,14,15,21,14.50
2016,04,14,15,22,17.70
2016,04,14,15,23,14.50
2016,04,14,15,24,14.50
2016,04,14,15,25,14.50
2016,04,14,15,26,9.60
2016,04,14,15,27,11.30
2016,04,14,15,28,9.60
2016,04,14,15,29,8.10
2016,04,14,15,30,8.10
2016,04,14,15,31,11.30
2016,04,14,15,32,11.30
2016,04,14,15,33,4.80
2016,04,14,15,34,4.80
2016,04,14,15,35,3.20
2016,04,14,15,36,3.20
2016,04,14,15,37,3.20
2016,04,14,15,38,3.20
2016,04,14,15,39,6.40
2016,04,14,15,40,6.40
2016,04,14,15,41,3.20
2016,04,14,15,42,8.10
2016,04,14,15,43,8.10
2016,04,14,15,44,9.60
2016,04,14,15,45,9.60
2016,04,14,15,46,6.40
2016,04,14,15,47,4.80
2016,04,14,15,48,4.80
2016,04,14,15,49,4.80
2016,04,14,15,50,4.80
2016,04,14,15,51,4.80
2016,04,14,15,52,12.90
2016,04,14,15,53,14.50
2016,04,14,15,54,6.40
2016,04,14,15,55,12.90
2016,04,14,15,56,8.10
2016,04,14,15,57,8.10
2016,04,14,15,58,6.40
2016,04,14,16,00,4.80
2016,04,14,16,01,6.40
2016,04,14,16,02,3.20
2016,04,14,16,03,1.60
2016,04,14,16,04,4.80
2016,04,14,16,05,8.10
2016,04,14,16,06,8.10
2016,04,14,16,07,8.10
2016,04,14,16,08,6.40
2016,04,14,16,09,8.10
2016,04,14,16,10,4.80
2016,04,14,16,11,6.40
2016,04,14,16,12,9.60
2016,04,14,16,13,8.10
2016,04,14,16,14,4.80
2016,04,14,16,15,9.60
2016,04,14,16,16,4.80
2016,04,14,16,17,6.40
2016,04,14,16,18,6.40
2016,04,14,16,19,4.80
2016,04,14,16,20,1.60
2016,04,14,16,21,8.10
2016,04,14,16,22,8.10
2016,04,14,16,23,6.40
2016,04,14,16,24,6.40
2016,04,14,16,25,4.80
2016,04,14,16,26,1.60
2016,04,14,16,27,3.20
2016,04,14,16,28,3.20
2016,04,14,16,29,6.40
2016,04,14,16,30,4.80
2016,04,14,16,31,4.80
2016,04,14,16,32,4.80
2016,04,14,16,33,6.40
2016,04,14,16,34,6.40
2016,04,14,16,35,1.60
2016,04,14,16,36,1.60
2016,04,14,16,37,1.60
2016,04,14,16,39,4.80
2016,04,14,16,40,4.80
2016,04,14,16,41,3.20
2016,04,14,16,42,3.20
2016,04,14,16,43,8.10
2016,04,14,16,44,4.80
2016,04,14,16,45,3.20
2016,04,14,16,46,3.20
2016,04,14,16,47,6.40
2016,04,14,16,48,6.40
2016,04,14,16,49,3.20
2016,04,14,16,50,4.80
2016,04,14,16,51,6.40
2016,04,14,16,52,6.40
2016,04,14,16,53,8.10
2016,04,14,16,54,4.80
2016,04,14,16,55,4.80
2016,04,14,16,56,1.60
2016,04,14,16,57,1.60
2016,04,14,16,58,3.20
2016,04,14,16,59,4.80
2016,04,14,17,00,3.20
2016,04,14,17,02,3.20
2016,04,14,17,03,3.20
2016,04,14,17,04,3.20
2016,04,14,17,05,3.20
2016,04,14,17,06,1.60
2016,04,14,17,07,3.20
2016,04,14,17,08,4.80
2016,04,14,17,09,3.20
2016,04,14,17,10,3.20
2016,04,14,17,11,11.30
2016,04,14,17,12,6.40
2016,04,14,17,13,11.30
2016,04,14,17,14,12.90
2016,04,14,17,15,9.60
2016,04,14,17,16,6.40
2016,04,14,17,17,4.80
2016,04,14,17,18,6.40
2016,04,14,17,19,6.40
2016,04,14,17,20,9.60
2016,04,14,17,21,8.10
2016,04,14,17,22,6.40
2016,04,14,17,23,12.90
2016,04,14,17,24,9.60
2016,04,14,17,25,11.30
2016,04,14,17,26,8.10
2016,04,14,17,27,11.30
2016,04,14,17,28,11.30
2016,04,14,17,29,12.90
2016,04,14,17,30,14.50
2016,04,14,17,31,19.30
2016,04,14,17,32,9.60
2016,04,14,17,33,6.40
2016,04,14,17,34,11.30
2016,04,14,17,35,12.90
2016,04,14,17,36,12.90
2016,04,14,17,37,12.90
2016,04,14,17,38,8.10
2016,04,14,17,39,8.10
2016,04,14,17,40,4.80
2016,04,14,17,41,6.40
2016,04,14,17,42,9.60
2016,04,14,17,43,6.40
2016,04,14,17,44,3.20
2016,04,14,17,45,8.10
2016,04,14,17,46,9.60
2016,04,14,17,47,11.30
2016,04,14,17,48,9.60
2016,04,14,17,49,8.10
2016,04,14,17,50,11.30
2016,04,14,17,51,17.70
2016,04,14,17,52,20.90
2016,04,14,17,53,17.70
2016,04,14,17,54,12.90
2016,04,14,17,55,11.30
2016,04,14,17,56,14.50
2016,04,14,17,57,16.10
2016,04,14,17,58,20.90
2016,04,14,17,59,17.70
2016,04,14,18,00,16.10
2016,04,14,18,01,12.90
2016,04,14,18,02,11.30
2016,04,14,18,03,19.30
2016,04,14,18,04,17.70
2016,04,14,18,05,19.30
2016,04,14,18,06,14.50
2016,04,14,18,07,16.10
2016,04,14,18,08,16.10
2016,04,14,18,09,16.10
2016,04,14,18,10,16.10
2016,04,14,18,11,16.10
2016,04,14,18,12,14.50
2016,04,14,18,13,14.50
2016,04,14,18,14,14.50
2016,04,14,18,15,17.70
2016,04,14,18,16,17.70
2016,04,14,18,17,16.10
2016,04,14,18,18,19.30
2016,04,14,18,19,20.90
2016,04,14,18,20,14.50
2016,04,14,18,21,11.30
2016,04,14,18,22,14.50
2016,04,14,18,23,14.50
2016,04,14,18,24,14.50
2016,04,14,18,25,20.90
2016,04,14,18,26,17.70
2016,04,14,18,27,14.50
2016,04,14,18,28,16.10
2016,04,14,18,29,12.90
2016,04,14,18,30,16.10
2016,04,14,18,31,11.30
2016,04,14,18,32,12.90
2016,04,14,18,33,9.60
2016,04,14,18,34,11.30
2016,04,14,18,35,16.10
2016,04,14,18,36,12.90
2016,04,14,18,37,11.30
2016,04,14,18,38,17.70
2016,04,14,18,39,11.30
2016,04,14,18,40,17.70
2016,04,14,18,41,16.10
2016,04,14,18,42,11.30
2016,04,14,18,43,4.80
2016,04,14,18,44,4.80
2016,04,14,18,45,9.60
2016,04,14,18,46,8.10
2016,04,14,18,47,11.30
2016,04,14,18,48,12.90
2016,04,14,18,49,11.30
2016,04,14,18,50,4.80
2016,04,14,18,51,12.90
2016,04,14,18,52,14.50
2016,04,14,18,53,16.10
2016,04,14,18,54,12.90
2016,04,14,18,55,16.10
2016,04,14,18,56,9.60
2016,04,14,18,57,17.70
2016,04,14,18,58,17.70
2016,04,14,18,59,8.10
2016,04,14,19,00,8.10
2016,04,14,19,01,6.40
2016,04,14,19,02,17.70
2016,04,14,19,03,14.50
2016,04,14,19,04,14.50
2016,04,14,19,05,8.10
2016,04,14,19,06,8.10
2016,04,14,19,07,9.60
2016,04,14,19,08,8.10
2016,04,14,19,09,11.30
2016,04,14,19,10,8.10
2016,04,14,19,11,12.90
2016,04,14,19,12,16.10
2016,04,14,19,13,14.50
2016,04,14,19,14,14.50
2016,04,14,19,15,14.50
2016,04,14,19,16,14.50
2016,04,14,19,17,11.30
2016,04,14,19,18,4.80
2016,04,14,19,19,3.20
2016,04,14,19,21,3.20
2016,04,14,19,22,9.60
2016,04,14,19,23,11.30
2016,04,14,19,24,9.60
2016,04,14,19,25,9.60
2016,04,14,19,26,6.40
2016,04,14,19,27,3.20
2016,04,14,19,28,6.40
2016,04,14,19,29,4.80
2016,04,14,19,30,4.80
2016,04,14,19,31,4.80
2016,04,14,19,32,8.10
2016,04,14,19,34,4.80
2016,04,14,19,35,11.30
2016,04,14,19,36,4.80
2016,04,14,19,37,4.80
2016,04,14,19,38,4.80
2016,04,14,19,39,3.20
2016,04,14,19,40,3.20
2016,04,14,19,41,8.10
2016,04,14,19,42,3.20
2016,04,14,19,43,4.80
2016,04,14,19,44,11.30
2016,04,14,19,45,11.30
2016,04,14,19,46,6.40
2016,04,14,19,47,8.10
2016,04,14,19,48,1.60
2016,04,14,19,49,1.60
2016,04,14,19,50,1.60
2016,04,14,19,51,11.30
2016,04,14,19,52,12.90
2016,04,14,19,53,9.60
2016,04,14,19,54,9.60
2016,04,14,19,55,12.90
2016,04,14,19,56,16.10
2016,04,14,19,57,12.90
2016,04,14,19,58,12.90
2016,04,14,19,59,9.60
2016,04,14,20,00,6.40
2016,04,14,20,01,9.60
2016,04,14,20,02,1.60
2016,04,14,20,03,1.60
2016,04,14,20,04,1.60
2016,04,14,20,05,4.80
2016,04,14,20,06,4.80
2016,04,14,20,07,4.80
2016,04,14,20,08,4.80
2016,04,14,20,09,4.80
2016,04,14,20,10,1.60
2016,04,14,20,12,1.60
2016,04,14,20,13,3.20
2016,04,14,20,14,1.60
2016,04,14,20,15,4.80
2016,04,14,20,16,3.20
2016,04,14,20,17,3.20
2016,04,14,20,18,3.20
2016,04,14,20,19,1.60
2016,04,14,20,20,1.60
2016,04,14,20,21,1.60
2016,04,14,20,22,1.60
2016,04,14,20,23,1.60
2016,04,14,20,24,3.20
2016,04,14,20,25,4.80
2016,04,14,20,26,4.80
2016,04,14,20,27,3.20
2016,04,14,20,28,3.20
2016,04,14,20,29,1.60
2016,04,14,20,31,3.20
2016,04,14,20,32,6.40
2016,04,14,20,33,8.10
2016,04,14,20,34,3.20
2016,04,14,20,35,3.20
2016,04,14,20,36,4.80
2016,04,14,20,37,3.20
2016,04,14,20,38,4.80
2016,04,14,20,39,4.80
2016,04,14,20,40,1.60
2016,04,14,20,41,3.20
2016,04,14,20,42,3.20
2016,04,14,20,43,6.40
2016,04,14,20,44,9.60
2016,04,14,20,45,4.80
2016,04,14,20,46,3.20
2016,04,14,20,47,3.20
2016,04,14,20,48,4.80
2016,04,14,20,49,1.60
2016,04,14,20,50,4.80
2016,04,14,20,51,8.10
2016,04,14,20,52,9.60
2016,04,14,20,53,3.20
2016,04,14,20,54,3.20
2016,04,14,20,55,3.20
2016,04,14,20,56,3.20
2016,04,14,20,57,4.80
2016,04,14,20,58,4.80
2016,04,14,20,59,3.20
2016,04,14,21,00,1.60
2016,04,14,21,03,1.60
2016,04,14,21,04,3.20
2016,04,14,21,05,1.60
2016,04,14,21,10,1.60
2016,04,14,21,11,3.20
2016,04,14,21,12,4.80
2016,04,14,21,13,3.20
2016,04,14,21,14,3.20
2016,04,14,21,15,1.60
2016,04,14,21,16,3.20
2016,04,14,21,17,1.60
2016,04,14,21,18,3.20
2016,04,14,21,19,1.60
2016,04,14,21,20,3.20
2016,04,14,21,21,3.20
2016,04,14,21,31,4.80
2016,04,14,21,32,4.80
2016,04,14,21,33,3.20
2016,04,14,21,34,3.20
2016,04,14,21,35,3.20
2016,04,14,21,36,1.60
2016,04,14,21,37,3.20
2016,04,14,21,38,1.60
2016,04,14,21,47,1.60
2016,04,14,22,15,6.40
2016,04,14,22,16,1.60
2016,04,14,22,17,3.20
2016,04,14,22,18,4.80
2016,04,14,22,19,4.80
2016,04,14,22,20,4.80
2016,04,14,22,21,3.20
2016,04,14,22,22,1.60
2016,04,14,22,23,3.20
2016,04,14,22,24,1.60
2016,04,14,22,25,1.60
2016,04,14,22,29,3.20
2016,04,14,22,30,3.20
2016,04,14,22,34,1.60
2016,04,14,22,38,3.20
2016,04,14,23,10,3.20
2016,04,14,23,11,4.80
2016,04,14,23,12,3.20
2016,04,14,23,13,4.80
2016,04,14,23,14,3.20
2016,04,14,23,15,4.80
2016,04,14,23,16,4.80
2016,04,14,23,17,4.80
2016,04,14,23,18,3.20
2016,04,14,23,19,1.60
2016,04,14,23,20,3.20
2016,04,14,23,21,1.60
2016,04,14,23,34,1.60
2016,04,14,23,35,1.60
2016,04,14,23,38,1.60
2016,04,14,23,39,1.60
2016,04,14,23,43,1.60
2016,04,14,23,46,3.20
2016,04,14,23,47,3.20
2016,04,14,23,48,3.20
2016,04,14,23,51,1.60
2016,04,14,23,52,3.20
2016,04,14,23,53,3.20
